TimeEST,TemperatureF,Dew PointF,Humidity,Sea Level PressureIn,VisibilityMPH,Wind Direction,Wind SpeedMPH,Gust SpeedMPH,PrecipitationIn,Events,Conditions,WindDirDegrees,DateUTC
12:54 AM,34.0,17.1,50,29.88,10.0,North,-9999.0,-,N/A,,Clear,0,2013-03-04 05:54:00
1:54 AM,32.0,17.1,54,29.89,10.0,North,-9999.0,-,N/A,,Clear,0,2013-03-04 06:54:00
2:54 AM,30.9,17.1,57,29.88,10.0,North,-9999.0,-,N/A,,Clear,0,2013-03-04 07:54:00
3:54 AM,30.9,17.1,57,29.89,10.0,North,-9999.0,-,N/A,,Mostly Cloudy,0,2013-03-04 08:54:00
4:54 AM,32.0,18.0,56,29.90,10.0,North,-9999.0,-,N/A,,Overcast,0,2013-03-04 09:54:00
5:54 AM,30.9,17.1,57,29.92,10.0,North,-9999.0,-,N/A,,Mostly Cloudy,0,2013-03-04 10:54:00
6:54 AM,32.0,18.0,56,29.94,10.0,North,-9999.0,-,N/A,,Scattered Clouds,0,2013-03-04 11:54:00
7:54 AM,34.0,17.1,50,29.96,10.0,North,-9999.0,-,N/A,,Clear,0,2013-03-04 12:54:00
8:54 AM,35.1,16.0,46,29.96,10.0,North,-9999.0,-,N/A,,Scattered Clouds,0,2013-03-04 13:54:00
9:54 AM,37.0,15.1,41,29.96,10.0,NW,16.1,32.2,N/A,,Scattered Clouds,310,2013-03-04 14:54:00
10:54 AM,39.0,17.1,41,29.94,10.0,NNW,17.3,32.2,N/A,,Scattered Clouds,330,2013-03-04 15:54:00
11:54 AM,39.9,16.0,38,29.94,10.0,North,-9999.0,-,N/A,,Clear,0,2013-03-04 16:54:00
12:54 PM,41.0,16.0,36,29.93,10.0,WNW,21.9,34.5,N/A,,Partly Cloudy,300,2013-03-04 17:54:00
1:54 PM,42.1,17.1,37,29.91,10.0,NW,17.3,28.8,N/A,,Partly Cloudy,310,2013-03-04 18:54:00
2:54 PM,42.1,17.1,37,29.91,10.0,NW,17.3,28.8,N/A,,Partly Cloudy,310,2013-03-04 19:54:00
3:54 PM,44.1,18.0,35,29.91,10.0,NW,19.6,29.9,N/A,,Clear,320,2013-03-04 20:54:00
4:54 PM,43.0,17.1,35,29.91,10.0,North,-9999.0,-,N/A,,Clear,0,2013-03-04 21:54:00
5:54 PM,39.9,19.0,43,29.94,10.0,North,-9999.0,-,N/A,,Clear,0,2013-03-04 22:54:00
6:54 PM,37.9,19.0,47,29.96,10.0,North,-9999.0,-,N/A,,Clear,0,2013-03-04 23:54:00
7:54 PM,37.0,19.0,48,29.98,10.0,North,-9999.0,-,N/A,,Clear,0,2013-03-05 00:54:00
8:54 PM,35.1,19.0,52,30.00,10.0,North,-9999.0,-,N/A,,Clear,0,2013-03-05 01:54:00
9:54 PM,39.0,17.1,41,30.01,10.0,North,-9999.0,-,N/A,,Clear,0,2013-03-05 02:54:00
10:54 PM,37.9,16.0,41,30.01,10.0,North,-9999.0,-,N/A,,Clear,0,2013-03-05 03:54:00
11:54 PM,36.0,16.0,44,30.01,10.0,North,-9999.0,-,N/A,,Clear,0,2013-03-05 04:54:00